Regional Weather Roundup
Issued by NWS

Home | Current Version | Previous Version | Graphics & Text | Print | Product List | Glossary On
Versions: 1 2 3 4 5 6 7 8 9 10 11 12 13 14 15 16 17 18 19 20 21 22 23 24 25 26 27 28 29 30 31 32 33 34 35 36 37 38 39 40 41 42 43 44 45 46 47 48 49 50
000
ASUS43 KBIS 292310
RWRND

NORTH DAKOTA REGIONAL WEATHER ROUNDUP
NATIONAL WEATHER SERVICE BISMARCK ND
600 PM CDT FRI AUG 29 2014

NOTE: "FAIR" INDICATES FEW OR NO CLOUDS BELOW 12,000 FEET WITH NO
SIGNIFICANT WEATHER AND/OR OBSTRUCTIONS TO VISIBILITY.


NDZ001>003-009>011-017-300000-
NORTHWEST NORTH DAKOTA

CITY           SKY/WX    TMP DP  RH WIND       PRES   REMARKS
WILLISTON      MOSUNNY   71  47  42 CALM      29.96F
MINOT          PTSUNNY   67  49  52 N9        29.94S
MINOT AFB      PTSUNNY   68  50  51 N10       29.94S
$$

NDZ018>021-031>035-040>046-300000-
SOUTHWEST NORTH DAKOTA

CITY           SKY/WX    TMP DP  RH WIND       PRES   REMARKS
BISMARCK       CLOUDY    69  57  65 N13       29.93R
DICKINSON      MOSUNNY   69  54  58 NE7       29.96F
GARRISON         N/A     69  51  52 NE12G18   29.95R
HETTINGER ARPT SUNNY     71  53  52 N12       29.98S
$$

NDZ004>008-012>016-024-026-027-054-300000-
NORTHEAST NORTH DAKOTA

CITY           SKY/WX    TMP DP  RH WIND       PRES   REMARKS
GRAND FORKS    CLOUDY    64  57  78 N20G31    29.80R
GRND FRKS AFB  LGT RAIN  63  60  91 N16G26    29.83R
DEVILS LAKE    CLOUDY    63  52  67 N16       29.89R
$$

NDZ022-023-025-028>030-036>039-047>053-300000-
SOUTHEAST NORTH DAKOTA

CITY           SKY/WX    TMP DP  RH WIND       PRES   REMARKS
FARGO          CLOUDY    75  65  70 MISG      29.76R
JAMESTOWN      CLOUDY    64  57  78 N18G25    29.86R
$$



USA.gov is the U.S. government's official web portal to all federal, state and local government web resources and services.